Simultaneous Nadir Overpasses (SNOs) Predictions

Prediction of SNOs between AURA and NPP Satellite Orbit:

Table of predicted SNOs for the next 14.0 days since TLE Epoch: 4/6/2018
Index Date (AURA) Time (AURA) Lat,Lon (AURA) SZA (AURA ) Date (NPP) Time (NPP) Lat,Lon (NPP) SZA (NPP ) Distance(km) Time Diff (sec)
1 04/07/2018 03:42:08 79.49, 21.29 85.82 04/07/2018 03:41:20 79.48, 21.25 85.87 0.84 48
2 04/07/2018 04:31:30 -79.67,-169.73 94.48 04/07/2018 04:32:00 -79.66,-169.88 94.47 3.15 30
3 04/09/2018 19:58:34 79.60, 138.00 84.63 04/09/2018 19:58:12 79.61, 138.11 84.63 2.13 22
4 04/09/2018 20:47:56 -79.79, -52.98 95.67 04/09/2018 20:48:52 -79.79, -52.97 95.71 0.24 56
5 04/12/2018 11:25:44 -79.34, 84.44 95.98 04/12/2018 11:24:32 -79.34, 84.34 95.91 2.19 72
6 04/12/2018 12:15:03 79.61,-106.10 83.63 04/12/2018 12:15:08 79.61,-106.15 83.63 1.01 5
7 04/15/2018 03:42:09 -79.49,-158.66 97.18 04/15/2018 03:41:23 -79.50,-158.59 97.16 1.65 46
8 04/15/2018 04:31:28 79.75, 10.84 82.43 04/15/2018 04:31:59 79.76, 10.98 82.38 2.75 31
9 04/17/2018 19:58:35 -79.56, -42.30 98.24 04/17/2018 19:58:16 -79.56, -42.32 98.22 0.57 19
10 04/17/2018 20:47:55 79.78, 126.95 81.42 04/17/2018 20:48:53 79.78, 126.97 81.38 0.45 58
11 04/20/2018 11:25:41 79.39, -95.22 81.09 04/20/2018 11:24:31 79.39, -95.26 81.15 0.95 70




NCC Satellite Simultaneous Nadir Overpasses (SNOs) Prediction Service
